Theta_e
306 306 306 306 306 306 306 305 306 305 303 305 303 308 303 302 301 308 309 311 310 303 297 297 294 294 295 298 298 298 297 295 296 295 297 293 296 295 293 292 291 291 291 291 290 291 287 288 288 290 291 292 295 297 296 297 295 295 292 295 295 294 284 282 284 289 292 292 293 294 295 293 291 292 292 291 287 288 287 286 287 282 284 282 282 278 282
306 306 306 306 306 306 306 306 305 305 303 303 305 305 302 302 302 304 308 311 310 300 291 291 291 294 297 297 296 298 295 294 294 294 295 294 292 291 291 291 296 291 294 292 289 292 283 290 290 290 292 291 296 297 298 297 295 294 293 289 293 284 286 283 280 281 286 286 286 288 291 292 290 290 292 291 291 291 291 290 290 282 284 284 281 276 282
306 306 306 306 306 306 306 306 305 305 304 305 305 301 301 302 304 302 304 307 306 296 296 293 291 293 294 294 294 295 296 295 294 294 294 296 295 291 290 293 293 291 295 292 292 292 290 287 291 291 292 292 296 296 297 298 295 296 297 296 295 287 286 284 277 275 274 274 276 279 283 286 290 290 290 290 289 288 287 282 284 279 284 285 282 281 288
306 306 306 306 306 306 306 305 305 304 304 303 307 304 303 300 293 302 302 303 302 299 301 298 294 292 293 290 293 295 293 296 296 294 294 296 296 295 295 295 295 292 292 290 290 289 293 289 288 290 290 292 294 296 296 295 295 297 300 299 296 288 287 286 284 281 279 282 284 288 288 287 285 288 289 289 290 290 289 288 283 280 284 283 286 286 287
306 306 306 306 306 306 305 305 304 304 303 303 304 306 302 301 296 294 292 300 300 297 298 297 296 291 295 289 293 292 293 294 295 295 293 296 295 295 293 290 286 289 289 287 287 290 289 292 291 290 290 292 294 296 296 296 296 298 298 300 296 288 285 286 285 284 285 286 286 288 289 285 287 287 288 290 289 290 288 284 282 288 284 280 287 291 288
307 307 306 306 306 306 306 305 305 304 303 303 307 302 303 296 297 299 298 293 292 293 293 296 295 295 295 293 294 292 292 293 290 294 296 295 296 291 293 292 292 291 289 289 285 288 288 289 286 291 292 291 293 292 295 295 299 299 299 300 294 287 283 287 287 285 287 288 287 288 288 288 288 289 290 289 290 290 287 287 289 289 283 281 288 290 288
307 307 307 306 306 306 305 305 305 304 302 304 308 302 302 301 300 298 300 294 297 295 295 295 295 295 294 293 293 291 292 291 293 291 292 293 293 295 286 288 291 292 292 290 286 288 283 283 290 290 290 290 289 289 292 297 299 298 297 297 296 288 286 289 288 285 287 289 290 290 288 288 288 288 289 290 290 289 290 289 290 290 288 289 289 290 290
307 307 307 306 306 306 305 305 305 304 301 307 306 301 300 297 296 296 300 299 297 297 296 296 295 294 293 289 293 291 291 290 292 293 291 287 291 295 288 290 292 292 292 291 288 290 290 289 286 292 291 289 291 289 291 290 296 296 294 295 296 289 286 289 288 286 287 290 291 291 289 288 287 288 289 290 290 291 290 290 291 291 290 291 291 290 289
307 307 307 307 306 306 305 305 305 303 303 305 303 301 302 301 301 299 295 295 297 298 297 295 294 292 294 292 293 292 293 291 291 291 295 292 290 293 289 292 291 293 292 292 292 294 293 292 292 293 292 287 292 289 290 293 290 293 293 294 294 293 287 290 288 284 285 290 291 290 291 290 288 288 289 289 289 288 290 288 292 290 289 291 291 289 290
307 307 307 307 306 306 305 305 305 303 303 306 303 299 303 303 302 300 297 293 294 294 298 297 294 290 294 292 292 290 292 293 292 287 293 294 295 294 292 291 290 288 289 291 293 294 294 294 294 295 295 296 295 295 294 293 291 291 291 295 291 291 288 286 286 283 285 290 291 290 289 287 285 285 287 289 291 291 292 294 295 294 294 290 287 290 296
307 307 307 307 306 306 305 304 304 303 305 301 301 300 302 299 298 299 298 293 296 296 295 296 293 293 293 294 291 293 293 293 292 287 287 294 294 296 293 291 289 288 290 294 297 297 297 297 297 297 296 296 296 296 296 295 295 294 292 292 293 293 290 287 289 282 284 289 290 291 286 279 279 289 292 290 287 289 286 288 291 294 296 295 298 297 298
307 307 307 307 306 306 306 304 304 303 303 305 304 300 301 302 301 299 295 292 293 296 294 294 293 294 292 293 291 290 290 291 291 293 289 292 294 295 294 293 293 286 296 299 298 298 298 299 299 299 298 297 297 296 296 294 293 296 296 293 291 291 290 289 290 285 284 287 288 285 280 280 288 292 292 293 291 291 289 290 293 295 295 295 295 296 296
307 307 307 307 307 306 306 305 304 303 304 305 303 299 302 303 299 297 295 292 291 296 293 295 296 295 295 293 292 292 292 292 293 293 293 292 292 294 295 293 292 294 298 297 297 296 293 292 292 293 293 296 297 296 294 293 292 293 295 296 293 289 289 289 288 289 287 285 285 278 281 286 287 289 291 294 293 292 290 289 293 296 297 296 293 295 296
307 307 307 307 307 306 306 305 304 304 303 304 302 301 301 302 298 297 295 291 292 297 295 294 296 295 295 294 292 292 293 293 294 294 291 295 293 293 296 296 296 298 298 298 296 294 290 291 286 288 289 291 292 289 291 294 293 293 293 295 295 294 293 290 286 290 281 283 284 285 287 286 287 287 288 289 286 286 285 283 290 295 296 295 293 294 295
307 307 307 307 307 307 306 306 306 304 304 304 305 302 301 300 300 298 298 295 289 293 297 291 294 294 294 294 295 293 293 293 292 292 296 297 294 296 296 297 299 299 299 296 292 293 289 288 283 283 285 284 279 281 290 288 292 295 295 296 295 296 290 292 287 285 288 283 283 284 283 280 284 289 293 295 295 295 294 291 289 296 297 297 294 293 294
307 307 307 307 307 307 306 306 306 305 304 304 304 302 301 302 302 300 298 294 291 289 295 298 296 294 292 293 295 292 290 290 291 292 293 294 294 296 298 298 299 300 298 294 294 290 287 284 281 282 280 281 286 284 282 288 287 292 295 295 295 296 296 293 289 286 287 284 282 282 280 282 288 290 294 295 296 296 296 291 286 294 296 295 295 293 295
307 307 307 307 307 307 307 307 306 306 305 304 302 301 300 304 301 299 297 295 292 289 298 300 298 296 293 293 295 294 294 289 290 287 287 290 292 294 296 298 300 299 294 293 292 289 287 285 287 285 287 287 282 281 287 285 284 286 292 294 292 292 291 289 287 285 285 284 282 281 285 284 290 293 294 295 297 298 295 281 282 293 294 295 295 294 295
307 307 307 307 307 307 307 307 307 306 305 305 303 301 300 304 303 302 297 295 291 291 299 299 296 294 294 294 291 295 296 294 293 293 291 293 294 293 293 295 293 296 298 290 290 287 285 285 281 281 281 288 288 288 279 284 282 283 284 286 286 286 286 288 284 285 284 283 283 286 286 292 294 294 295 295 298 296 283 277 285 294 295 297 297 296 297
307 307 307 307 307 307 307 307 307 306 305 305 304 302 301 303 303 302 298 295 292 288 298 300 300 297 299 299 296 295 295 293 292 288 288 290 293 294 294 293 293 288 294 289 290 286 285 284 289 285 282 285 288 281 287 283 282 287 287 284 285 285 286 287 287 283 283 284 283 283 287 293 295 296 296 298 292 282 279 290 297 297 296 298 299 298 299
307 307 307 307 307 307 307 307 307 307 306 305 304 299 301 304 303 302 297 293 294 291 295 297 298 296 299 296 293 292 294 294 294 290 288 286 295 294 292 288 293 293 291 292 285 289 285 282 284 287 284 285 286 289 286 286 289 286 286 288 285 285 283 282 282 284 285 284 282 281 278 288 296 296 294 297 285 287 294 296 298 299 298 298 298 299 299
307 307 307 307 308 308 308 307 307 307 306 306 304 300 298 303 304 304 303 299 293 288 292 301 300 299 299 298 298 297 295 292 294 292 294 292 294 291 284 282 288 289 286 287 282 284 286 283 285 284 287 286 288 288 283 283 286 292 290 288 287 290 283 283 284 288 280 281 279 280 288 293 297 295 288 293 295 298 299 298 296 299 299 299 299 299 300
307 307 307 307 308 308 308 308 307 307 307 306 304 302 297 302 304 304 303 302 294 290 295 300 301 300 301 302 301 301 299 298 299 299 294 291 295 292 291 292 290 290 291 292 289 288 290 288 288 285 284 286 291 285 287 283 281 288 292 291 282 291 287 288 283 290 285 283 287 293 296 296 298 298 297 298 299 299 300 300 298 298 299 301 299 299 302
307 307 307 307 308 308 308 308 308 307 307 306 305 300 298 300 301 304 303 295 298 298 299 298 299 300 302 302 304 304 304 305 303 302 300 294 290 293 292 291 291 295 294 295 289 288 288 288 285 289 286 288 286 285 287 286 283 287 285 292 289 294 294 295 292 289 294 295 296 297 297 297 297 299 299 299 299 301 300 299 298 299 300 301 299 300 301
307 307 307 307 308 308 308 308 308 307 307 307 305 302 300 301 302 301 299 297 294 290 294 297 294 292 296 296 300 303 303 302 303 303 304 301 290 290 295 296 296 295 294 295 297 290 290 289 289 290 284 289 290 285 282 282 285 290 288 288 291 293 295 293 289 292 289 284 295 295 295 296 297 298 300 301 300 299 300 300 300 299 299 300 301 302 304
307 307 307 307 308 308 308 308 308 307 307 306 306 306 305 302 303 301 296 288 289 289 287 292 294 298 299 301 302 301 302 304 305 304 303 302 298 293 292 297 298 294 293 296 297 294 291 286 288 288 283 291 292 284 290 285 286 292 285 288 289 289 297 291 292 291 288 287 293 295 296 297 299 299 297 297 297 299 301 302 302 301 301 302 302 305 304
307 307 307 307 307 308 308 308 307 307 306 306 306 303 300 299 303 304 300 298 296 292 285 286 294 301 301 299 298 301 305 304 303 303 302 301 301 301 299 299 298 300 298 297 296 290 289 288 288 288 286 287 296 288 287 291 289 293 289 288 293 293 295 287 291 289 291 294 294 294 295 296 297 298 298 298 298 299 301 302 301 301 301 302 302 303 304
307 307 307 307 307 307 308 307 307 307 306 306 306 305 303 303 304 301 297 296 290 287 288 285 291 296 298 297 301 303 304 303 303 302 301 302 301 301 300 298 295 296 295 294 295 291 290 288 288 287 291 290 294 292 293 291 291 288 288 292 296 293 288 292 290 286 286 287 290 294 287 286 292 295 296 297 299 300 301 301 300 301 301 301 302 302 304
306 307 307 307 307 307 307 307 307 307 306 306 306 305 305 302 302 304 304 302 296 290 290 290 290 294 298 296 302 303 302 302 302 301 300 300 301 300 299 297 297 294 294 291 288 288 288 286 288 292 293 294 291 289 294 294 294 291 291 292 295 291 292 291 287 285 285 291 294 295 294 294 295 296 298 299 301 301 299 299 300 300 301 302 302 302 303
306 307 307 307 307 307 307 307 307 306 306 306 305 303 302 303 304 304 304 304 301 294 291 291 294 292 288 297 302 301 303 302 301 300 299 299 299 299 299 298 297 296 295 293 291 290 290 290 292 291 290 297 292 288 291 286 286 285 290 295 295 296 296 294 293 293 294 296 295 296 294 292 295 297 299 299 300 300 299 300 301 301 301 302 302 302 303
306 307 307 307 307 307 307 307 307 306 306 305 302 297 293 295 303 302 304 303 301 297 289 287 286 289 299 299 299 301 300 301 300 299 298 298 298 298 298 298 298 298 296 292 291 288 291 291 291 296 297 300 291 289 286 288 286 289 295 296 297 297 297 297 297 294 292 296 296 296 296 296 298 298 298 299 300 300 299 300 301 301 302 303 302 303 306
307 307 307 307 307 307 307 307 307 306 305 302 297 288 286 286 298 304 304 303 303 297 291 290 287 292 291 299 300 298 299 298 298 298 298 299 298 299 299 299 299 298 292 293 292 291 292 289 290 293 297 297 293 289 288 287 285 288 293 295 296 296 296 296 298 298 297 297 297 297 297 297 299 298 298 298 299 301 300 301 301 301 301 302 303 304 305
307 307 307 307 307 307 307 307 306 305 304 299 294 292 294 297 301 303 304 303 303 296 290 286 286 288 290 294 299 301 298 297 297 298 299 299 298 299 299 298 296 299 295 293 293 292 290 291 290 293 293 297 293 290 291 288 285 287 294 295 296 296 296 296 296 297 298 298 297 295 295 296 297 295 294 299 299 301 301 301 301 301 301 303 304 305 306
306 307 307 306 306 307 307 307 306 305 303 303 302 302 302 302 303 303 304 303 299 294 295 288 285 288 287 293 299 299 297 298 299 299 296 301 298 299 297 299 298 297 299 293 290 288 294 292 292 291 295 299 291 290 289 287 289 293 293 293 294 294 294 295 296 297 297 297 297 293 292 293 295 298 299 300 300 300 301 300 301 301 301 302 302 304 304
306 306 306 306 306 307 307 307 305 304 302 301 296 298 302 303 303 303 305 302 297 296 292 288 285 285 287 297 293 296 297 293 295 296 291 299 300 297 294 297 297 291 295 291 293 292 294 294 290 291 295 291 294 289 285 289 293 293 292 292 293 293 293 294 295 295 296 296 297 297 297 297 298 299 299 299 299 300 301 301 300 299 299 300 301 302 303
306 306 306 306 306 307 306 305 302 300 296 297 299 302 305 304 304 304 303 300 291 288 287 288 288 285 285 288 288 293 297 295 293 296 291 296 300 295 296 292 294 288 291 298 292 291 290 291 295 289 287 294 289 285 287 291 291 291 291 291 292 292 293 292 293 295 295 296 296 296 297 298 297 297 296 297 298 298 299 299 299 299 298 299 300 302 303
306 306 306 306 306 306 304 302 301 298 295 294 297 303 304 304 304 304 304 303 298 290 288 288 287 285 287 284 285 291 297 294 296 296 295 294 295 298 295 293 288 293 298 292 289 293 290 295 291 285 290 287 285 288 289 290 290 290 291 291 293 293 293 293 293 294 295 296 296 297 297 297 296 296 296 297 297 298 298 297 298 298 298 298 299 301 302
305 306 306 306 304 300 296 294 300 300 297 302 304 305 304 304 304 302 301 298 300 299 291 287 285 286 288 287 289 291 295 288 295 292 295 291 290 293 292 290 288 291 290 289 289 288 293 298 290 286 286 285 288 292 292 291 292 291 291 293 294 294 294 295 295 295 294 295 295 295 295 295 295 295 295 295 295 296 296 296 296 296 296 297 299 299 301
305 306 304 300 297 290 289 291 297 303 304 303 303 300 298 298 290 291 292 290 294 295 291 291 285 290 293 290 286 296 293 291 295 289 290 293 289 290 292 289 289 288 284 287 290 296 291 288 287 286 288 293 294 293 293 293 293 294 294 294 295 295 295 295 295 294 292 291 292 292 292 293 293 294 293 293 294 295 295 296 297 298 298 299 300 301 302
304 302 300 299 294 289 289 294 304 304 303 303 302 292 288 291 289 286 287 289 289 286 290 289 287 291 290 289 291 298 294 290 289 291 287 295 288 286 290 285 290 288 285 285 289 295 285 287 288 287 286 291 291 293 294 295 295 296 296 296 296 296 296 295 295 293 292 291 292 292 292 290 290 291 293 293 294 295 296 297 297 298 299 299 300 301 301
300 296 293 292 290 292 301 304 305 302 299 291 292 290 285 289 286 284 290 285 285 288 290 286 292 292 293 290 290 290 298 292 287 288 289 291 297 286 289 288 290 286 281 282 286 293 285 282 286 285 284 289 291 294 295 295 295 295 296 296 296 296 296 295 295 295 295 294 294 294 294 293 293 293 293 293 294 293 294 296 297 298 298 299 298 299 301
298 296 295 290 295 299 300 302 302 300 291 287 287 286 286 284 288 289 287 285 285 287 294 292 293 290 293 293 293 288 297 297 297 295 292 287 295 292 287 284 291 283 282 282 289 289 287 284 284 284 285 290 291 293 294 294 295 295 296 296 296 295 295 295 295 295 294 293 293 293 293 294 293 293 294 294 294 294 294 295 295 296 297 298 300 301 303
298 298 299 301 301 301 300 298 293 289 288 289 285 283 285 286 288 287 288 284 286 290 291 292 288 291 291 293 293 294 294 299 296 292 289 286 291 288 286 287 288 282 279 287 291 287 286 281 282 283 288 291 293 294 294 293 294 294 295 295 295 295 295 294 294 294 294 293 292 292 293 292 292 292 292 292 292 293 293 294 294 296 297 299 301 302 302
303 302 301 297 294 292 291 287 289 288 283 283 282 281 285 282 284 284 286 289 293 290 291 296 295 296 296 298 294 296 294 297 292 290 288 286 291 289 285 284 284 279 284 291 287 284 282 281 281 285 291 292 293 293 294 294 294 294 294 295 294 295 295 294 293 293 293 293 292 292 291 291 292 292 293 293 292 293 293 294 294 295 296 297 299 300 302
300 298 293 290 288 288 288 280 288 285 283 285 283 280 282 282 285 287 285 288 290 289 292 290 291 290 288 294 293 292 292 292 292 291 289 290 287 285 284 281 282 289 292 285 284 281 282 284 286 289 291 292 293 293 294 294 294 293 293 293 294 295 294 293 293 292 292 292 292 292 292 292 292 292 292 292 292 292 292 293 294 294 295 296 298 299 302
291 288 287 287 285 287 285 280 288 284 281 283 285 286 287 284 287 288 288 292 293 291 293 294 293 292 290 294 294 293 292 289 293 287 284 287 284 286 283 282 287 287 283 281 282 284 283 283 289 290 291 291 292 293 294 294 293 292 292 293 294 293 292 291 291 291 290 290 291 291 290 290 290 290 291 292 293 294 293 292 294 294 295 296 297 299 302
288 286 287 284 281 285 285 283 284 281 286 288 287 290 291 292 292 291 294 295 293 293 291 293 292 292 290 293 289 289 291 290 287 287 288 288 283 281 287 290 288 282 281 282 280 279 281 285 287 289 291 292 292 293 293 293 293 293 292 291 291 291 291 291 290 290 289 290 290 289 289 289 289 289 290 292 293 294 294 294 295 295 296 296 297 300 303
288 288 288 287 284 286 287 283 283 286 289 290 293 293 294 294 293 294 295 295 292 293 292 293 293 293 291 289 289 289 290 290 286 288 289 283 282 285 289 283 278 281 278 277 279 281 283 287 289 291 292 293 293 293 292 292 292 292 292 292 291 290 290 290 290 289 289 289 289 288 288 288 289 289 290 290 292 294 294 294 294 295 295 296 300 303 305
286 289 289 283 282 285 282 285 291 292 293 293 294 295 295 295 293 291 293 294 294 293 292 291 289 290 288 293 291 288 289 289 285 287 288 285 287 283 281 281 280 282 283 281 282 286 287 289 290 291 293 294 293 292 291 291 292 291 291 291 290 290 290 289 289 289 289 288 287 288 288 288 288 288 289 290 291 292 293 293 293 295 297 299 302 303 304
290 288 286 286 287 286 286 290 290 288 292 293 293 294 293 292 292 293 294 294 293 292 294 292 290 289 286 289 287 287 284 288 282 283 287 284 281 277 278 276 279 278 283 285 285 288 289 290 292 293 294 293 293 292 291 291 291 290 290 290 290 290 290 289 290 289 289 288 288 288 288 288 289 289 290 290 290 291 292 293 294 295 299 301 301 301 303
288 287 288 287 286 286 289 291 290 289 292 292 292 292 293 293 292 292 293 291 291 290 290 289 290 287 287 286 283 285 285 288 286 286 284 281 281 283 281 278 280 280 283 287 288 289 291 292 293 293 293 293 292 291 291 291 290 290 290 290 290 290 289 290 289 289 289 289 289 288 288 289 289 289 288 288 290 291 292 293 294 297 301 302 302 302 302
290 288 288 292 288 287 288 285 287 288 290 290 291 291 292 291 292 292 293 292 291 290 288 286 287 286 284 284 282 279 283 289 285 283 283 282 286 283 281 279 283 286 287 289 290 291 292 293 293 292 293 292 292 291 291 291 290 290 290 290 289 290 290 290 289 288 288 289 289 287 288 288 289 289 289 290 290 290 291 292 294 296 299 301 302 302 302
286 285 286 288 291 292 292 293 293 293 293 294 293 294 294 291 293 293 295 293 291 287 285 288 286 284 283 280 284 287 288 285 283 284 282 285 287 283 283 285 287 289 289 289 290 292 293 294 294 292 293 291 290 291 291 291 290 290 289 289 289 289 289 289 289 289 288 288 288 288 288 289 288 288 289 289 289 289 289 289 291 294 297 301 301 301 301
Wind_Speed
14 15 16 16 17 18 19 22 20 20 22 11 9 8 4 5 3 2 9 10 7 4 2 4 2 4 4 3 3 2 4 3 4 6 2 4 1 4 4 3 5 2 5 9 11 12 12 15 11 9 10 10 10 10 11 12 13 11 10 10 6 3 4 9 14 13 14 7 5 7 11 12 12 13 14 11 12 13 11 9 5 8 8 8 6 9 10
14 14 15 15 17 18 19 19 19 19 18 11 9 6 4 3 4 1 6 11 6 4 3 3 3 3 2 1 0 1 4 5 7 4 4 3 3 3 3 3 3 8 8 8 12 11 9 3 8 8 7 10 10 9 11 12 11 10 8 8 2 4 2 4 12 13 7 4 2 2 6 9 8 8 10 13 13 13 13 12 10 11 12 12 8 11 11
14 14 14 16 17 16 17 18 18 18 18 13 6 5 4 3 2 3 3 8 7 4 4 3 2 3 4 2 1 3 2 1 5 6 5 3 5 3 2 2 4 5 8 11 12 10 8 12 14 13 10 11 13 10 9 13 15 12 12 9 7 5 8 5 6 9 12 12 11 11 8 9 9 10 9 11 12 13 10 10 9 10 12 13 11 12 13
13 13 13 14 15 15 15 16 17 18 18 15 6 4 5 4 3 2 1 4 4 6 3 4 4 3 5 2 4 5 6 2 2 2 5 2 4 5 6 6 5 6 10 12 10 10 9 9 8 12 14 12 8 10 17 16 15 13 10 1 9 3 3 7 10 10 11 12 12 2 1 8 10 12 11 9 11 11 12 11 10 11 9 10 13 15 17
12 11 13 13 13 14 15 16 17 18 19 14 5 3 2 3 3 3 4 3 4 5 4 5 4 3 4 2 5 7 9 7 1 3 4 3 4 7 3 2 1 6 10 10 13 13 13 12 15 13 15 13 13 16 18 16 9 2 6 3 4 2 7 8 10 15 14 15 15 16 13 14 15 15 13 11 10 12 14 11 14 11 11 13 15 13 13
11 11 12 11 12 14 15 16 16 18 20 17 5 3 4 2 2 1 2 3 3 3 3 6 4 2 3 1 2 6 8 8 6 5 0 6 6 4 2 3 4 10 9 12 10 11 16 14 11 14 12 16 17 16 11 13 5 4 6 4 5 6 5 6 3 13 10 12 16 14 14 13 12 13 13 11 10 12 15 16 18 17 13 15 18 17 21
10 10 10 11 11 12 14 16 16 18 21 15 5 4 3 1 1 0 1 3 3 3 4 4 4 3 2 2 2 6 8 8 7 6 8 8 3 2 5 4 10 12 11 10 11 14 14 12 15 13 15 16 17 14 14 2 4 9 10 10 4 1 6 7 7 16 17 12 7 6 10 11 9 10 12 11 12 13 15 17 17 18 20 21 22 24 25
9 9 9 9 10 11 13 17 16 18 23 13 2 6 4 4 5 2 2 4 3 2 3 3 4 2 2 2 4 5 7 8 10 7 6 7 7 3 5 11 12 13 12 11 11 14 14 18 19 17 18 20 10 13 10 10 10 10 12 11 4 1 6 8 13 12 13 7 6 8 3 3 4 4 7 11 11 13 14 16 17 19 21 21 22 23 23
8 8 8 8 9 9 11 14 15 17 19 4 5 5 5 3 3 3 6 4 1 4 3 4 3 2 2 3 3 6 5 8 9 12 8 8 8 7 9 12 15 12 13 14 15 14 17 18 21 21 19 17 15 10 10 9 14 14 12 8 7 5 6 9 9 11 8 6 11 11 4 3 4 5 5 5 9 11 12 13 13 14 17 18 18 19 17
8 8 8 7 7 7 8 10 12 14 17 3 4 4 2 1 2 1 4 4 2 4 3 2 4 0 4 3 3 4 7 7 8 8 1 1 4 7 10 11 12 11 13 15 15 18 18 21 23 20 18 16 17 15 16 16 12 11 10 10 9 7 8 10 10 11 8 11 12 7 3 5 4 13 14 13 13 12 15 14 13 14 15 16 15 16 15
7 7 7 7 5 6 6 6 8 12 9 5 5 4 4 4 4 3 2 5 1 4 6 2 2 3 4 1 5 5 7 7 6 6 3 5 7 7 10 12 11 11 13 14 17 18 20 21 24 20 20 18 16 14 12 15 12 11 10 9 8 12 10 10 5 5 10 13 12 6 4 2 3 0 7 5 9 15 16 15 16 17 13 11 11 14 17
7 7 7 7 5 5 4 3 3 5 8 4 3 3 2 3 2 2 5 5 3 2 4 5 5 4 4 5 5 6 8 8 9 7 12 12 12 10 9 9 9 10 11 16 18 19 22 21 20 15 15 15 13 11 10 8 8 7 7 8 10 11 10 9 5 7 10 11 10 5 3 5 3 1 5 6 9 13 14 18 20 16 14 15 12 12 17
8 7 8 7 5 4 4 3 2 1 5 4 3 2 2 2 3 3 3 3 4 8 5 4 3 5 5 6 7 7 7 9 10 10 10 12 12 9 7 8 11 13 16 17 18 19 16 16 15 10 4 4 1 6 6 5 7 5 6 8 8 8 9 7 7 7 6 5 7 6 4 1 1 6 7 10 9 5 13 12 2 7 4 6 12 20 20
8 9 8 8 7 5 4 4 3 5 4 5 3 1 1 1 2 2 3 3 5 6 5 6 3 5 8 7 7 8 7 7 7 6 8 7 10 11 9 8 11 13 12 12 14 12 10 9 7 7 5 3 6 3 6 10 6 6 8 9 7 9 9 5 7 4 7 8 9 7 2 3 1 4 7 13 12 17 13 9 5 4 1 9 16 22 21
10 9 9 9 8 7 7 7 5 6 7 5 3 0 2 2 1 2 2 2 5 7 4 4 8 8 8 9 8 8 7 7 7 5 7 5 6 6 9 10 10 10 10 11 9 8 8 7 6 7 4 7 6 5 8 6 7 3 6 9 8 7 9 6 8 4 5 9 9 5 4 8 8 7 12 15 15 12 16 7 2 2 7 12 15 18 19
11 10 10 10 9 9 8 7 6 7 8 7 3 2 2 3 2 2 2 3 4 4 3 6 6 6 7 8 8 7 6 7 7 8 4 1 5 8 8 8 8 7 9 8 7 6 6 6 6 6 6 7 8 6 5 10 8 6 7 9 7 8 7 6 5 6 7 7 8 6 7 3 6 16 18 21 19 16 14 5 2 3 9 17 19 20 21
12 11 11 11 11 11 11 9 8 8 9 9 4 2 3 4 5 3 3 3 3 5 8 8 4 4 6 6 5 5 6 5 7 6 6 7 11 10 7 9 6 5 8 8 6 5 5 5 5 6 3 6 7 7 9 6 11 11 11 7 8 9 7 5 5 6 6 8 7 7 3 3 11 17 17 22 21 19 9 7 8 14 22 20 19 21 20
12 12 12 12 12 12 12 11 10 10 11 11 6 3 3 4 5 4 3 4 3 5 3 3 5 5 5 6 7 6 5 5 5 5 6 10 9 8 11 9 7 1 4 7 6 4 5 5 7 6 5 6 6 6 5 8 8 10 13 13 10 10 8 6 8 8 9 9 7 5 0 3 11 19 19 18 20 11 11 12 15 20 22 19 18 20 20
13 12 12 12 12 12 13 13 12 12 11 12 7 5 5 5 6 5 4 4 4 5 2 4 7 8 8 6 7 6 5 5 4 4 6 5 5 11 13 4 4 4 7 5 6 3 5 4 4 4 4 6 6 6 7 7 8 8 10 10 9 9 8 5 8 8 9 8 10 8 5 4 16 17 15 13 13 9 14 10 13 16 19 19 17 19 21
13 13 13 13 12 12 14 15 13 13 14 14 9 5 2 4 6 7 6 5 4 8 10 11 9 11 7 8 7 6 5 6 5 4 4 6 8 13 8 3 2 5 5 6 3 4 4 5 6 4 4 6 5 6 6 6 7 7 8 8 6 8 8 8 9 7 6 7 9 7 6 5 20 21 12 6 13 11 14 15 15 14 16 18 19 16 21
13 14 13 13 12 13 15 16 16 15 16 16 12 7 6 5 6 7 8 7 4 6 6 2 4 8 9 10 10 11 10 9 6 5 5 7 6 5 4 4 7 5 4 5 6 5 3 5 7 4 4 6 7 6 7 9 7 5 6 7 3 8 7 6 6 7 7 8 8 5 9 16 18 16 12 15 11 11 13 14 15 14 13 14 15 18 18
13 13 13 13 14 15 16 16 16 16 17 17 15 7 7 5 6 6 6 6 7 8 5 7 10 13 14 14 14 13 13 13 12 9 8 7 5 6 6 7 6 3 2 4 4 2 2 4 4 5 7 7 5 5 8 7 6 7 4 4 5 8 7 6 8 8 4 6 11 12 14 14 14 15 14 14 16 13 14 15 15 15 13 13 14 16 19
13 13 13 13 14 15 14 15 16 16 17 17 14 9 8 5 6 5 6 6 6 8 10 13 11 13 14 16 15 14 13 11 10 10 9 8 6 6 6 6 4 2 4 2 4 5 5 6 5 6 7 5 6 8 8 6 6 7 7 6 6 8 6 7 9 8 10 12 8 10 13 16 17 17 14 14 16 15 14 16 16 14 13 12 14 16 18
13 14 14 13 14 15 15 15 15 15 16 17 15 9 8 6 5 6 4 4 5 5 8 9 6 3 3 3 1 6 9 10 12 11 9 9 8 5 5 6 3 2 4 5 4 5 5 4 6 6 7 7 7 6 7 7 6 8 8 8 6 8 5 9 9 10 12 7 13 15 17 18 18 17 15 14 14 15 14 16 17 16 16 14 15 14 17
14 14 13 13 14 14 14 14 15 16 16 18 14 6 2 4 6 7 6 4 2 3 5 3 7 8 4 2 2 4 7 6 7 9 10 12 12 9 5 6 2 6 6 3 2 5 3 5 5 5 8 7 6 7 6 7 7 7 10 9 9 5 7 11 9 12 9 11 14 16 18 19 13 10 14 18 19 20 19 16 16 16 17 16 18 17 17
14 14 13 13 13 14 15 15 15 16 17 19 17 10 9 6 5 6 5 4 3 2 4 5 2 4 2 5 8 8 8 7 8 10 12 13 14 12 11 7 7 4 5 5 5 6 5 6 6 7 7 5 3 7 8 8 11 11 10 10 7 8 9 7 12 11 12 13 14 18 22 11 6 14 16 16 17 18 21 21 21 21 21 20 19 17 16
14 14 14 14 13 14 14 15 15 16 17 17 14 10 8 5 6 9 6 5 3 4 5 6 6 5 3 10 11 11 9 9 9 10 11 13 13 12 12 10 9 8 7 7 6 5 5 7 7 9 8 7 7 9 10 11 10 9 9 8 5 6 7 10 12 10 10 12 17 19 18 18 21 22 24 24 23 21 21 22 23 23 22 21 21 21 18
15 15 15 14 13 14 14 14 15 15 16 16 10 8 6 6 8 7 5 5 7 5 4 5 7 6 8 16 10 5 5 6 8 9 10 11 13 12 11 11 10 9 7 6 6 5 6 7 9 6 7 8 8 8 8 9 10 10 10 5 3 6 8 8 8 8 11 14 16 14 13 15 15 20 23 23 20 19 21 22 22 22 22 22 22 23 22
15 14 14 14 13 13 14 14 15 15 16 13 7 7 7 8 6 8 8 6 4 5 5 8 9 6 3 3 2 7 6 7 8 9 9 10 11 12 11 11 10 9 8 7 7 7 8 9 7 8 8 5 5 8 8 7 7 9 7 2 2 4 6 8 10 11 13 14 14 15 13 16 19 21 21 20 18 18 21 20 20 21 23 23 22 21 20
14 14 14 13 13 13 13 13 13 13 15 9 6 3 4 5 8 11 10 9 7 3 3 3 5 2 3 5 6 3 5 6 7 9 10 9 10 10 10 10 10 9 9 7 6 8 7 8 7 9 10 5 6 5 7 8 8 7 3 4 6 7 8 9 10 11 13 15 14 15 16 18 18 18 19 18 17 18 18 20 20 21 22 23 22 19 18
14 14 14 14 13 13 13 13 13 15 15 8 5 2 2 4 2 10 13 11 7 5 2 2 6 6 7 4 5 7 7 6 6 7 9 9 8 9 8 8 8 8 8 8 8 9 6 9 6 7 6 8 5 6 8 9 9 10 5 6 8 10 10 12 11 11 13 14 14 14 17 16 15 18 19 20 22 21 20 19 21 20 22 22 21 20 18
14 14 14 13 12 12 13 14 15 18 12 11 10 5 2 1 1 6 11 10 8 4 3 3 4 3 4 3 3 3 6 6 5 5 5 5 6 6 7 8 7 8 7 6 6 6 9 7 8 9 10 5 8 7 9 9 10 9 9 8 9 10 11 12 12 12 12 12 14 16 16 17 17 18 19 22 22 21 20 21 21 21 21 19 18 17 17
14 13 12 12 12 12 13 14 18 15 10 7 9 5 2 3 7 10 11 9 5 3 2 2 4 3 4 2 5 3 2 5 6 4 3 5 4 5 5 7 6 5 6 4 5 4 4 5 5 8 7 6 5 6 8 8 5 5 8 9 9 10 12 13 13 12 12 13 12 14 16 17 19 21 21 22 21 20 20 20 20 20 20 20 20 20 19
13 12 11 11 11 12 13 15 18 15 11 6 4 3 3 7 9 10 8 6 3 2 1 2 3 4 5 3 7 4 2 3 1 1 1 5 1 4 3 5 6 4 7 7 4 5 5 5 6 7 6 5 7 6 9 3 4 7 8 9 9 10 11 12 12 13 14 14 14 14 16 17 18 18 19 20 21 19 18 17 19 21 21 20 19 18 18
11 10 9 9 9 10 12 19 13 8 7 6 2 3 7 10 8 12 10 4 4 2 1 2 2 4 5 3 4 2 2 4 3 3 3 2 2 4 1 5 3 4 2 6 5 5 6 6 6 5 7 3 2 7 4 5 6 8 9 9 10 10 12 13 15 14 15 16 17 17 18 19 19 18 19 20 19 19 19 20 19 19 20 19 19 19 18
9 8 7 7 9 10 10 10 7 6 4 5 3 7 13 11 10 7 7 2 2 2 2 2 2 5 4 5 5 2 2 5 2 3 3 3 4 4 3 2 5 2 4 3 5 4 5 4 2 7 2 5 5 2 1 4 6 8 8 10 10 10 11 14 16 17 16 17 18 19 19 17 17 18 18 19 19 19 20 20 20 19 19 18 19 19 17
9 8 12 14 9 5 4 2 2 2 3 5 5 7 12 9 3 3 3 3 2 1 4 1 4 6 5 5 3 2 3 2 2 3 3 2 3 0 2 2 4 1 2 4 6 6 3 2 4 7 6 6 1 3 1 3 6 8 9 10 10 11 12 13 15 18 20 19 19 17 15 18 19 17 18 20 19 19 20 20 19 19 20 21 21 19 19
12 15 10 6 4 2 1 1 4 7 16 17 12 8 4 3 2 2 2 2 2 3 4 5 8 7 6 6 5 2 1 2 1 2 1 0 3 2 1 2 1 1 5 4 3 4 3 2 5 6 2 2 2 2 3 5 6 7 8 9 10 11 12 14 15 16 19 21 19 19 21 21 20 20 20 23 22 21 19 17 17 16 16 17 18 18 17
17 8 3 1 2 3 3 4 10 17 9 4 1 1 1 0 2 2 3 2 1 4 3 6 8 8 9 9 9 5 4 3 4 2 3 2 2 2 1 3 1 2 4 4 1 2 4 3 3 4 5 3 4 3 6 7 8 7 8 9 11 11 12 13 14 17 18 18 20 21 19 19 22 23 20 21 21 19 18 19 18 17 16 17 18 18 18
8 7 4 4 2 2 5 12 18 9 3 2 1 0 2 2 4 3 3 3 3 2 3 6 7 8 10 10 6 3 5 5 4 3 2 3 2 3 1 3 2 2 5 5 0 1 3 5 3 4 4 1 3 4 8 9 10 10 11 11 12 13 12 13 16 16 17 19 19 19 18 19 20 20 21 21 21 22 21 18 18 17 17 18 19 19 18
4 5 4 3 5 6 6 7 5 3 2 1 2 1 1 3 3 1 2 5 5 3 5 5 3 4 7 8 7 5 4 2 3 3 2 3 2 2 2 2 1 3 4 4 1 0 3 5 5 5 3 2 4 7 9 10 10 11 11 12 12 12 13 17 18 17 18 18 18 18 18 19 18 18 18 20 19 19 20 19 18 19 21 20 20 18 16
4 5 7 8 6 7 7 3 1 2 1 0 1 3 3 1 1 2 3 4 4 2 5 6 5 6 5 8 7 5 3 3 2 2 2 3 1 2 2 3 1 3 3 2 2 4 3 5 5 4 1 2 6 8 10 11 11 12 13 13 12 15 18 18 18 18 17 18 17 17 17 17 18 17 17 18 18 17 18 19 19 19 20 19 18 17 16
22 16 11 7 3 2 0 3 2 1 4 3 2 3 4 4 5 4 3 3 1 2 2 4 1 3 3 2 4 4 1 2 3 2 2 2 0 1 2 2 1 5 4 3 3 4 5 6 5 3 2 5 8 10 11 11 11 12 12 11 12 16 17 17 18 18 18 17 17 16 16 17 18 17 17 17 19 19 18 17 17 17 17 18 17 17 16
9 7 6 1 3 0 1 3 2 1 3 3 4 5 6 4 6 4 4 3 4 4 6 6 6 6 3 6 3 3 2 3 2 2 3 1 1 2 1 3 4 2 2 4 4 6 5 4 5 5 5 7 8 11 11 11 11 11 12 13 16 17 17 17 17 18 18 16 16 16 17 17 17 16 16 16 16 19 18 17 16 17 18 18 16 16 15
5 2 3 2 2 2 2 3 2 3 5 6 4 5 6 6 5 9 5 3 4 2 6 5 4 6 3 5 2 2 2 0 2 3 2 1 3 2 3 5 3 3 4 6 5 5 4 4 1 4 7 10 11 11 10 11 11 11 13 17 18 18 17 17 18 17 17 17 18 18 17 17 16 16 16 16 17 16 16 17 16 16 16 16 16 15 14
2 3 3 4 4 3 3 3 4 4 3 2 5 7 7 5 0 4 4 4 4 4 4 5 4 4 4 4 2 1 2 2 3 3 2 2 3 4 2 2 2 5 5 5 5 6 5 4 5 7 9 11 11 10 10 10 11 11 15 16 17 17 17 17 17 17 17 17 18 18 18 17 16 16 17 17 17 17 16 15 15 15 15 15 15 14 13
2 0 0 0 2 3 2 5 6 3 2 5 6 4 4 1 3 3 3 2 3 3 4 0 3 3 3 4 3 2 2 2 3 1 1 4 4 3 1 3 5 4 5 6 6 5 4 4 7 8 9 9 9 10 10 10 10 12 15 15 16 17 17 17 18 18 18 19 19 19 18 17 16 16 16 17 17 17 16 16 16 16 15 15 16 14 12
3 1 1 2 4 5 7 4 2 2 3 2 2 3 2 2 3 4 4 3 4 3 4 4 3 3 2 1 2 4 1 2 3 4 2 3 2 3 3 4 5 4 4 6 6 4 6 7 8 8 7 6 7 8 9 9 11 12 15 15 16 17 17 17 18 18 19 19 19 18 18 19 18 18 17 18 19 18 16 15 16 16 15 15 14 13 11
1 2 3 2 1 2 1 3 5 5 5 4 3 3 4 5 4 4 5 3 3 3 1 2 1 2 3 1 3 3 4 3 4 2 2 3 3 3 3 4 5 7 4 3 5 6 7 7 7 6 6 6 6 6 8 9 10 11 12 14 15 16 16 16 18 18 18 17 17 18 18 18 18 17 17 17 17 17 16 16 16 15 14 13 12 11 10
2 1 0 2 2 0 1 2 5 6 6 5 5 5 5 4 4 4 3 4 2 3 2 3 2 1 0 1 3 2 4 3 3 2 4 5 5 4 4 7 6 6 6 5 7 7 7 7 7 8 8 6 5 6 8 9 9 10 11 12 13 14 15 17 17 18 17 17 18 19 19 17 16 16 16 17 17 17 17 16 14 14 13 11 10 8 7
0 1 1 0 0 2 7 6 8 7 7 7 6 5 5 5 4 4 4 3 5 4 3 4 3 2 2 3 3 4 3 2 3 6 5 4 2 3 6 7 7 6 7 6 6 7 7 7 6 6 6 6 6 6 7 8 9 10 11 11 12 14 15 16 16 16 17 17 18 18 18 17 16 17 16 15 16 15 15 14 11 12 12 9 6 6 5
2 3 3 3 2 3 4 2 0 3 3 2 4 4 5 4 4 4 5 5 5 5 5 3 2 3 3 6 5 2 1 2 4 3 6 5 3 6 6 6 7 7 7 7 7 7 7 6 3 3 4 4 5 6 7 8 9 9 10 11 12 13 15 15 15 16 16 17 17 17 17 17 18 15 14 15 15 13 12 12 13 13 11 7 5 5 6
Wind_Direction
340 342 343 345 346 345 346 347 345 348 346 351 354 311 310 5 7 44 344 343 324 286 115 144 74 44 16 321 207 285 264 299 323 308 360 326 264 283 277 316 310 278 318 317 314 321 303 293 285 297 296 299 309 320 322 310 307 306 297 298 355 38 269 272 267 280 277 263 282 249 250 254 248 238 243 239 228 227 242 255 265 257 251 247 249 250 265
337 340 341 344 346 345 344 345 345 346 358 346 315 305 356 321 326 309 7 339 307 314 35 5 18 43 72 305 353 292 313 333 331 315 314 306 310 317 293 331 300 306 306 306 310 323 315 278 295 293 313 300 329 299 296 308 303 320 319 317 50 286 217 248 300 307 300 173 199 219 233 226 239 248 227 234 247 238 240 256 260 269 261 263 265 262 257
335 338 339 344 345 342 342 344 342 344 347 345 320 335 332 283 210 250 358 13 16 61 18 9 349 26 359 332 356 345 255 52 327 306 293 291 281 315 304 313 322 295 316 304 300 299 284 291 293 284 295 302 311 317 310 305 298 305 308 307 124 222 258 260 276 294 307 319 317 317 305 306 304 276 255 243 246 250 247 242 240 255 261 253 251 261 268
332 334 336 343 344 341 341 342 342 341 343 342 300 311 283 2 332 16 93 33 66 98 97 39 356 10 360 325 9 315 343 358 12 292 291 283 272 285 304 289 299 289 325 317 315 309 290 282 298 304 301 306 309 323 314 304 302 310 324 197 157 257 253 228 250 258 272 277 280 270 173 294 283 279 267 254 241 250 251 263 262 250 274 273 259 259 276
326 329 336 343 343 340 342 342 341 341 337 346 312 285 334 293 354 342 346 314 102 72 46 26 2 18 346 325 6 346 342 339 353 63 308 87 309 294 255 243 1 325 328 314 310 308 304 295 292 295 305 311 307 317 308 303 299 4 310 31 226 271 293 261 237 247 252 268 275 278 273 272 273 275 268 262 250 235 244 246 252 271 287 275 266 266 270
320 328 335 341 343 342 342 340 342 340 336 333 293 323 359 310 85 320 54 301 359 343 64 11 0 51 289 45 325 343 334 349 353 334 118 330 302 285 184 213 294 315 317 317 307 313 311 309 299 311 313 317 323 318 326 314 106 244 329 331 322 316 290 293 257 282 273 268 270 274 281 268 262 270 274 264 256 246 241 242 251 261 262 267 281 297 293
314 320 331 338 345 343 339 339 345 343 334 327 309 327 77 13 11 97 325 279 34 338 340 315 321 317 273 305 290 335 347 344 1 332 319 322 306 289 296 286 309 319 316 312 304 314 321 312 311 311 311 316 320 312 330 167 311 333 329 336 355 276 270 297 298 299 305 306 287 272 273 280 274 260 264 267 266 258 255 258 260 259 263 265 275 282 282
306 314 320 336 342 349 342 340 349 344 334 315 25 29 336 32 338 2 279 268 307 335 299 301 294 287 118 285 33 327 334 332 337 330 322 315 312 308 282 298 313 313 309 308 302 310 305 303 303 306 310 307 306 307 294 300 311 325 328 327 88 146 309 335 309 307 317 338 327 333 309 305 303 285 269 270 266 266 264 266 263 263 265 267 270 274 278
295 302 311 328 341 349 349 341 350 343 336 18 37 63 29 49 25 330 319 287 19 303 335 312 325 290 157 275 10 315 335 336 335 312 300 272 282 295 299 311 313 310 310 304 301 311 312 303 291 292 295 289 298 299 294 296 303 314 320 330 318 258 284 308 306 320 324 9 342 357 14 107 88 7 301 330 325 295 285 274 275 267 266 270 275 275 274
282 288 295 308 333 345 349 348 348 350 324 345 358 43 41 65 123 292 333 311 75 304 330 277 258 163 35 354 338 314 330 327 336 330 28 325 294 302 305 308 305 296 297 302 314 318 308 298 293 289 283 276 277 269 270 279 287 299 298 313 310 316 312 318 329 322 330 347 344 343 326 217 46 15 344 321 307 319 318 311 295 271 271 277 270 271 292
269 273 283 290 309 334 342 360 355 355 346 36 15 30 20 8 358 335 319 321 6 336 325 2 322 57 321 244 298 287 291 310 324 324 299 315 307 311 303 296 292 295 292 307 321 308 298 292 286 283 277 272 263 259 259 262 261 264 287 310 310 317 326 320 333 303 316 325 327 318 278 356 21 231 302 274 288 308 307 306 305 298 287 292 298 305 320
259 263 267 276 284 312 329 356 52 7 344 31 359 51 31 332 300 310 332 333 351 345 310 341 335 334 294 310 295 290 291 300 305 303 289 297 303 308 298 290 282 283 317 325 310 307 302 292 285 273 256 250 248 253 237 256 286 271 259 272 303 309 317 317 325 307 321 311 310 281 310 21 133 255 292 295 291 291 293 295 292 290 288 287 300 323 314
249 250 253 257 266 281 291 298 126 81 325 347 338 26 80 336 330 347 342 325 323 346 325 343 337 302 302 299 295 287 289 291 291 288 281 292 298 302 303 304 295 298 321 311 309 306 310 313 315 303 295 13 313 195 200 271 295 301 321 329 321 321 319 326 310 331 297 307 332 327 32 120 194 265 283 309 289 272 316 296 326 22 348 307 319 321 323
243 242 245 244 246 256 269 259 178 182 204 293 341 54 91 235 319 331 337 320 309 345 331 291 254 320 326 322 307 299 290 283 290 280 284 288 297 305 312 307 307 312 309 304 300 304 314 322 329 335 9 15 136 153 221 264 321 314 333 336 333 325 309 332 323 14 341 318 315 320 134 146 283 345 350 348 342 326 325 312 319 346 315 356 331 322 320
241 239 238 234 233 238 248 245 226 179 183 238 309 198 171 173 229 309 327 281 308 306 279 316 339 328 319 313 323 318 316 322 309 306 313 306 291 297 310 315 314 310 301 299 318 327 328 328 334 340 11 13 2 334 325 330 332 348 320 334 329 337 324 334 309 341 333 333 324 338 347 358 8 355 328 332 325 320 322 316 287 59 321 335 323 318 318
242 237 232 231 226 227 231 235 220 197 183 209 255 248 243 213 218 252 260 301 308 315 30 348 333 314 312 313 318 321 324 320 330 309 299 287 309 328 331 323 314 301 297 295 299 318 331 339 331 340 7 356 338 318 334 335 333 338 338 340 328 346 326 319 314 328 339 344 333 345 341 36 22 348 344 335 327 323 327 283 233 180 337 331 331 322 321
244 239 233 227 220 218 221 221 218 199 184 188 227 233 237 170 201 219 242 230 225 258 317 314 320 297 298 307 310 313 343 323 335 344 330 335 335 320 335 338 304 282 319 307 321 317 343 343 339 337 17 12 350 334 303 353 333 331 344 351 357 357 347 330 357 340 358 339 331 335 331 354 11 352 344 333 323 326 301 329 341 341 335 327 323 319 313
245 241 236 230 221 217 214 216 212 200 189 189 210 227 233 180 222 227 219 241 270 285 294 306 298 293 305 334 302 311 299 290 289 296 286 312 318 342 339 333 336 358 301 329 325 339 334 5 350 351 344 15 330 316 350 329 333 342 344 344 348 355 352 356 357 350 343 340 326 314 189 118 358 352 343 332 316 301 0 8 318 320 318 319 320 314 312
248 245 241 233 227 222 219 212 210 203 192 186 201 231 249 207 200 222 256 247 222 246 308 293 287 279 288 301 283 285 285 298 304 302 320 320 9 347 313 343 316 335 331 339 319 359 330 2 349 354 321 344 354 353 318 331 340 333 339 345 342 358 344 352 358 360 344 340 326 323 331 58 344 351 343 338 334 14 347 309 300 304 310 313 314 312 305
247 246 243 237 232 225 222 218 207 206 201 191 192 216 211 189 202 206 213 232 235 261 278 279 272 272 277 275 282 279 275 256 241 259 297 299 341 343 302 173 157 350 330 358 333 15 344 351 354 321 322 340 1 337 306 344 322 336 344 346 321 0 332 358 351 344 322 341 339 339 340 353 345 337 334 39 356 325 313 304 298 306 307 312 313 312 304
245 245 243 240 235 229 227 224 215 209 203 194 187 208 227 207 199 208 227 245 269 294 286 222 275 275 282 273 265 263 259 260 273 276 289 298 330 325 345 2 336 340 336 348 344 351 349 331 349 333 313 301 337 312 343 328 316 107 350 349 315 5 336 350 340 5 325 337 350 339 328 322 330 339 335 331 316 303 302 310 304 309 308 308 311 305 303
243 244 244 241 239 236 234 227 218 212 203 196 189 199 225 207 203 210 215 220 233 235 258 317 306 287 278 273 269 261 256 256 257 265 278 284 271 264 292 302 298 291 310 318 302 313 336 349 300 315 321 321 311 315 334 319 318 341 352 335 310 27 337 344 317 329 311 317 306 309 313 318 326 330 322 323 323 321 318 316 312 308 309 309 306 301 304
245 244 243 241 240 237 235 229 221 212 205 198 193 202 211 193 203 192 194 222 238 252 270 274 275 276 269 262 252 246 244 242 255 250 245 256 271 252 255 268 272 223 267 255 312 310 312 309 304 314 309 308 329 315 314 303 299 320 324 344 300 318 326 317 296 300 311 286 279 310 320 331 328 318 320 326 328 326 328 324 321 316 308 312 307 304 305
245 245 244 242 239 237 233 229 220 208 203 200 200 203 209 198 169 157 191 234 251 288 272 246 268 264 278 302 129 201 213 225 231 237 238 232 248 263 241 237 258 236 239 259 296 297 315 307 294 312 291 300 305 296 309 318 315 331 316 315 327 325 338 317 303 320 321 318 338 332 331 325 320 317 322 329 334 331 327 325 324 322 315 310 300 307 312
245 246 244 241 238 233 229 226 219 207 199 197 198 205 147 181 184 185 199 211 223 232 277 274 261 272 315 304 260 218 216 234 227 228 225 218 229 244 279 24 292 289 296 304 280 271 275 278 283 267 281 297 302 288 309 302 295 337 313 309 320 311 13 311 324 323 313 319 328 335 326 315 310 326 333 335 338 333 329 327 323 319 315 319 321 323 317
247 247 245 240 235 232 229 225 217 208 197 194 193 196 199 204 166 180 210 244 267 260 264 277 261 116 295 280 246 258 279 243 232 223 222 222 225 236 258 259 241 242 273 283 279 274 273 265 259 274 279 288 266 286 291 314 301 298 292 296 317 327 319 305 333 313 317 313 332 335 321 305 315 328 329 332 333 329 325 327 328 326 325 327 328 326 317
247 247 245 240 234 230 226 222 217 208 197 193 199 203 196 192 169 183 193 187 184 252 219 251 266 277 295 280 277 280 258 236 225 227 225 222 228 232 238 247 257 258 256 256 248 262 259 255 259 265 267 280 302 288 298 289 294 300 296 301 25 303 300 328 322 322 325 335 334 339 338 334 332 336 334 330 329 328 325 325 328 329 327 327 328 326 325
246 246 245 243 236 231 230 221 216 207 198 190 190 196 185 198 195 193 201 202 211 270 309 287 290 299 315 275 272 238 211 217 228 233 234 230 224 226 232 236 240 244 243 244 251 227 232 248 258 258 267 288 288 280 273 278 277 279 278 312 340 311 331 325 322 318 315 321 324 328 319 306 309 316 319 319 322 324 325 326 326 326 324 326 329 328 328
244 244 244 243 239 231 227 220 210 201 187 179 175 195 215 216 204 200 204 209 245 266 280 284 286 274 275 47 289 265 237 224 235 239 242 238 229 224 226 227 230 235 237 236 247 267 267 270 278 275 278 315 287 284 300 288 285 284 325 30 300 329 314 304 310 306 297 310 318 319 316 312 311 312 313 315 321 325 322 321 322 324 324 327 328 326 325
241 241 241 239 237 233 226 219 205 193 176 157 150 185 230 255 203 213 196 205 194 211 242 280 295 279 313 291 276 261 249 232 241 240 240 237 230 225 224 221 224 230 237 234 236 253 261 272 269 262 256 247 258 297 279 283 285 291 90 320 334 311 313 309 318 312 311 313 306 307 307 303 305 312 316 316 321 324 321 321 324 324 323 326 323 324 325
239 240 239 237 233 229 220 208 196 172 155 152 127 98 196 265 191 185 181 191 178 173 232 251 255 314 299 245 263 269 284 285 259 243 233 233 232 230 225 217 226 214 233 236 239 253 273 268 265 259 255 224 239 264 278 281 290 284 350 345 317 323 323 320 318 313 311 311 310 304 300 300 309 317 319 325 324 324 322 320 323 323 323 320 322 327 326
242 239 240 236 231 225 217 200 181 164 160 164 176 173 169 269 82 162 170 171 150 190 207 255 284 261 286 275 226 247 289 281 260 231 217 204 216 206 208 209 219 203 218 238 249 262 249 257 258 270 279 183 178 274 270 278 278 301 346 330 341 329 329 322 323 320 319 321 320 310 308 314 322 323 315 315 314 315 316 318 320 323 321 318 319 323 326
236 237 234 235 228 219 210 196 171 164 167 117 81 92 91 118 129 137 163 148 158 202 196 228 250 303 282 299 310 251 271 259 212 242 211 177 200 170 206 196 211 208 181 224 221 240 234 232 240 259 256 242 235 260 268 274 328 4 350 351 344 339 330 326 318 322 327 327 326 315 313 314 313 311 308 307 308 313 317 317 320 321 321 323 324 330 335
233 234 234 228 224 214 203 183 160 139 112 127 194 193 128 130 140 150 151 166 123 136 188 231 253 249 271 311 288 110 286 315 287 8 277 150 175 234 235 182 188 213 185 212 220 236 251 254 256 260 275 246 242 262 264 300 38 350 360 341 335 328 319 311 318 327 327 321 318 310 307 307 306 303 302 305 308 312 314 313 320 324 326 326 326 328 332
228 227 227 220 210 203 177 150 141 152 163 153 135 118 135 160 159 163 169 182 151 176 171 229 232 280 292 293 284 103 35 297 292 64 303 129 169 267 271 259 148 238 189 202 252 246 264 258 270 273 268 267 218 243 266 347 339 351 341 337 325 324 317 327 328 325 318 316 312 309 306 305 305 306 308 309 311 315 318 319 321 324 324 325 324 326 330
213 204 205 190 165 147 127 129 147 139 161 167 152 135 154 158 164 174 203 245 299 217 200 216 195 239 261 293 304 56 327 272 236 265 235 303 236 190 259 280 261 232 105 186 257 255 256 255 250 263 264 257 260 290 344 333 324 318 316 313 321 317 316 308 308 311 310 306 305 304 304 306 309 309 308 308 311 315 317 315 318 322 321 321 325 326 327
183 171 149 135 124 111 128 136 126 166 158 109 108 139 157 151 152 186 212 243 219 199 248 253 238 233 227 280 295 278 312 294 39 297 208 230 306 348 247 229 261 83 231 226 230 243 262 70 269 274 265 277 83 152 30 316 304 309 315 315 316 315 312 313 313 313 311 312 311 310 314 316 312 312 312 309 311 313 314 316 319 321 320 322 324 324 324
154 146 136 136 136 125 134 194 159 128 114 117 123 116 130 166 163 182 211 224 197 182 223 212 244 253 248 248 253 51 343 275 90 303 276 64 288 241 178 259 339 339 278 294 330 19 309 245 246 264 287 73 143 187 325 313 298 299 305 309 311 311 313 315 317 317 315 315 315 319 318 313 311 312 313 310 311 312 312 311 312 312 312 314 317 317 316
144 135 106 107 127 158 170 159 129 124 111 103 33 81 124 159 153 198 206 185 184 218 200 216 241 235 234 239 254 258 265 306 292 284 282 89 306 303 237 300 119 251 277 277 191 131 261 241 247 266 266 184 219 263 313 319 318 325 323 322 318 318 317 317 318 316 313 309 309 311 312 310 311 311 309 307 307 307 309 312 311 312 313 312 314 317 315
138 147 150 138 91 112 107 123 122 105 95 121 117 267 158 171 214 200 142 195 216 217 197 235 223 230 222 231 246 242 167 209 237 270 307 300 157 281 2 285 326 286 276 273 304 71 282 291 294 279 277 174 280 317 317 322 324 333 331 326 326 322 322 315 315 315 313 309 309 308 308 305 304 303 306 307 309 309 311 312 312 312 312 311 310 309 309
136 99 113 117 128 125 115 118 91 60 91 109 126 221 200 182 211 230 192 224 231 220 196 230 186 208 214 222 216 232 135 228 287 315 289 270 69 274 275 281 12 284 278 267 67 246 287 287 285 281 322 17 313 325 320 324 330 331 329 329 327 325 321 318 320 320 317 314 312 312 311 310 309 308 307 306 307 306 306 309 311 310 308 306 309 310 310
137 111 107 100 97 102 111 86 108 123 137 190 221 193 191 212 139 208 225 231 219 203 206 197 216 217 199 190 201 222 197 192 281 262 265 266 179 273 298 301 292 263 282 10 9 274 273 277 284 294 43 320 330 324 329 333 338 331 330 331 327 325 323 323 321 320 318 316 314 314 313 312 309 307 304 303 302 302 303 304 302 303 306 306 304 305 306
103 101 96 100 108 126 154 137 181 186 153 160 178 211 181 207 201 206 208 215 298 254 144 178 317 70 49 226 185 214 256 131 230 206 228 273 115 227 272 289 264 264 280 348 285 290 280 278 278 298 352 328 331 328 333 334 331 331 328 325 325 326 328 325 323 320 320 318 316 315 313 311 310 308 307 303 303 301 300 298 297 298 301 304 306 305 303
94 83 91 120 113 147 199 144 140 146 200 196 184 198 180 201 203 193 218 192 165 208 178 188 179 206 162 176 206 149 165 191 228 258 251 241 266 269 263 261 256 322 350 264 270 271 276 303 313 327 323 325 328 334 337 336 334 328 326 332 327 332 332 327 324 323 321 320 317 315 314 313 313 312 310 306 303 303 303 302 300 299 298 300 301 302 302
107 84 101 125 117 146 147 152 162 209 212 189 208 225 192 216 202 191 208 123 178 130 154 204 166 205 191 127 210 179 252 228 143 235 247 226 260 275 266 279 320 310 287 290 289 287 290 274 243 289 325 330 333 336 338 334 333 331 328 328 333 336 332 328 326 324 322 320 319 318 316 315 313 311 309 307 306 303 302 301 301 301 299 299 300 299 298
113 151 147 142 150 198 203 161 148 199 226 199 208 215 221 243 117 168 107 142 162 143 173 171 185 198 195 162 254 165 161 198 208 230 247 270 282 277 292 321 283 279 281 269 263 275 290 311 322 316 327 330 332 334 335 333 333 331 330 334 334 333 331 328 325 324 322 322 320 318 315 314 311 310 310 310 307 306 307 307 304 300 300 299 296 295 301
97 44 122 138 141 165 195 194 190 203 177 204 223 219 235 225 80 76 110 152 141 100 78 109 190 227 229 182 197 188 204 219 248 247 228 263 254 278 284 276 272 257 267 278 283 294 307 319 317 325 331 331 332 333 331 331 332 332 334 335 334 332 331 328 326 325 325 323 319 317 315 314 312 312 311 310 309 308 308 307 303 301 300 296 295 299 301
146 169 168 191 189 162 185 215 177 188 238 244 201 202 195 135 171 160 140 134 125 148 166 154 175 161 204 69 283 270 249 222 261 248 232 277 284 278 270 255 249 259 265 279 286 310 315 319 324 332 330 331 329 327 328 330 333 333 335 336 335 333 332 329 327 326 326 323 320 319 318 317 317 315 314 313 311 309 311 308 305 300 298 295 297 303 305
111 159 179 224 162 157 163 135 167 213 201 191 177 168 174 188 203 146 130 148 167 170 18 246 222 193 220 153 230 225 234 202 232 232 160 214 220 236 242 257 272 276 286 293 296 306 310 320 329 328 322 327 333 328 327 331 335 331 334 337 335 333 330 328 327 326 325 322 321 320 319 319 317 316 315 315 312 311 311 307 301 297 292 292 302 304 302
137 192 186 175 144 186 136 169 196 220 208 193 195 200 192 199 174 124 112 123 81 84 57 55 4 273 214 127 219 225 250 222 230 243 243 240 242 253 257 264 267 274 294 309 309 311 314 318 321 316 326 328 329 328 329 332 333 329 333 333 337 335 331 329 328 328 326 325 323 322 320 319 320 320 318 315 312 309 308 306 307 307 313 312 306 300 303
268 272 260 298 228 153 157 178 190 201 206 204 202 199 187 197 174 157 157 126 141 155 176 205 188 172 176 198 214 225 224 190 235 232 232 251 235 237 245 258 278 297 302 310 309 310 312 315 315 320 326 325 332 329 327 331 331 329 331 333 334 334 332 332 330 329 327 326 325 324 323 323 323 321 314 311 311 312 310 309 313 315 316 313 318 322 331
160 181 204 173 177 200 210 353 234 231 246 200 187 158 166 175 164 129 154 180 174 192 202 180 167 188 199 213 217 205 126 208 236 236 248 247 236 254 260 274 295 300 305 304 304 311 313 311 322 321 318 330 322 318 325 329 329 330 333 333 330 334 335 333 332 332 330 328 328 328 324 324 326 322 318 317 318 322 322 321 318 315 314 319 334 0 14